Simultaneous Nadir Overpasses (SNOs) Predictions

Prediction of SNOs between LANDSAT-8 and METOP-B Satellite Orbit:

Table of predicted SNOs for the next 14.0 days since TLE Epoch: 6/14/2024
Index Date (LANDSAT-8) Time (LANDSAT-8) Lat,Lon (LANDSAT-8) SZA (LANDSAT-8 ) Date (METOP-B) Time (METOP-B) Lat,Lon (METOP-B) SZA (METOP-B ) Distance(km) Time Diff (sec)
1 06/15/2024 15:26:14 81.36, -7.58 60.54 06/15/2024 15:25:04 81.35, -7.77 60.49 3.24 70
2 06/15/2024 16:15:40 -81.37, 160.39 119.42 06/15/2024 16:15:43 -81.37, 160.31 119.43 1.50 3
3 06/18/2024 11:49:58 -81.36,-133.42 119.54 06/18/2024 11:49:55 -81.36,-133.57 119.56 2.54 3
4 06/18/2024 12:39:24 81.36, 34.31 60.47 06/18/2024 12:40:34 81.37, 34.28 60.51 0.75 70
5 06/21/2024 07:24:15 -81.37, -66.70 119.54 06/21/2024 07:24:06 -81.37, -66.76 119.55 1.30 9
6 06/21/2024 08:13:41 81.38, 101.00 60.48 06/21/2024 08:14:45 81.38, 101.06 60.51 0.98 64
7 06/24/2024 02:58:33 -81.36, -0.60 119.57 06/24/2024 02:58:18 -81.37, -0.45 119.55 2.71 15
8 06/24/2024 03:47:58 81.38, 167.47 60.50 06/24/2024 03:48:57 81.37, 167.35 60.51 2.04 59
9 06/26/2024 22:32:49 -81.37, 66.03 119.46 06/26/2024 22:32:29 -81.37, 66.17 119.46 2.23 20



Historial Predications of SNOs between LANDSAT-8 and METOP-B
